Weather History for KHQZ - March, 2014

Change the Weather History Date:

Monday, March 17, 2014

  Actual Average (KDFW) Record (KDFW)
Temperature  
Mean Temperature 47 °F 58 °F  
Max Temperature 60 °F 69 °F 92 °F (1908)
Min Temperature 35 °F 47 °F 26 °F (1934)
Degree Days  
Heating Degree Days 18 8  
Month to date heating degree days 170  
Since 1 July heating degree days 2102  
Cooling Degree Days 0 1  
Month to date cooling degree days 15  
Year to date cooling degree days 22  
Moisture  
Dew Point 27 °F    
Average Humidity 50    
Maximum Humidity 77    
Minimum Humidity 21    
Precipitation  
Precipitation 0.00 in 0.12 in 1.10 in (1911)
Month to date precipitation 1.94  
Year to date precipitation 6.73  
Snow  
Snow 0.00 in 0.00 in 0.90 in (1934)
Month to date snowfall 0.1  
Since 1 July snowfall 1.1  
Snow Depth -    
Sea Level Pressure  
Sea Level Pressure 29.92 in    
Wind  
Wind Speed 9 mph (NW)    
Max Wind Speed 18 mph    
Max Gust Speed 25 mph    
Visibility 10 miles    
Events      
T = Trace of Precipitation, MM = Missing Value Source: NWS Daily Summary

Daily Weather History Graph

Daily Weather History Graph

Search for Another Location

Airport or City:

Trip Planner

Search our weather history database for the weather conditions in past years. The results will help you decide how hot, cold, wet, or windy it might be!

Date:

Astronomy

Mar. 17, 2014 Rise Set
Actual Time 7:33 AM CDT 7:35 PM CDT
Civil Twilight 7:09 AM CDT 8:00 PM CDT
Nautical Twilight 6:40 AM CDT 8:28 PM CDT
Astronomical Twilight 6:11 AM CDT 8:57 PM CDT
Moon 8:47 PM CDT (3/17) 7:54 AM CDT (3/17)
Length of Visible Light 12h 50m
Length of Day
12h 01m
Full, 99% of the Moon is Illuminated
Mar 17
Full
Mar 23
Last Quarter
Mar 30
New
Apr 7
First Quarter
Apr 15
Full

Hourly Weather History & Observations

Time (CDT) Temp. Windchill Dew Point Humidity Pressure Visibility Wind Dir Wind Speed Gust Speed Precip Events Conditions
12:15 AM 41.9 °F 35.0 °F 32.0 °F 68% 30.06 in 10.0 mi NNW 12.7 mph 20.7 mph N/A   Overcast
12:35 AM 41.4 °F 34.3 °F 31.1 °F 67% 30.05 in 10.0 mi NNW 12.7 mph 17.3 mph N/A   Scattered Clouds
1:15 AM 41.9 °F 35.0 °F 30.6 °F 64% 30.05 in 10.0 mi North 12.7 mph 25.3 mph N/A   Overcast
1:35 AM 42.4 °F 34.1 °F 30.6 °F 63% 30.05 in 10.0 mi NNW 18.4 mph 24.2 mph N/A   Overcast
1:55 AM 42.4 °F 35.3 °F 30.2 °F 62% 30.03 in 10.0 mi North 13.8 mph 23.0 mph N/A   Overcast
2:15 AM 41.9 °F 35.4 °F 29.8 °F 62% 30.01 in 10.0 mi North 11.5 mph 17.3 mph N/A   Mostly Cloudy
2:35 AM 41.4 °F 33.0 °F 29.7 °F 63% 30.01 in 10.0 mi North 17.3 mph 23.0 mph N/A   Scattered Clouds
2:55 AM 41.2 °F 33.0 °F 29.5 °F 63% 30.01 in 10.0 mi North 16.1 mph 21.9 mph N/A   Clear
3:15 AM 40.5 °F 33.2 °F 30.0 °F 66% 30.01 in 10.0 mi NNW 12.7 mph - N/A   Clear
3:35 AM 40.6 °F 33.0 °F 29.8 °F 65% 30.00 in 10.0 mi NNW 13.8 mph 23.0 mph N/A   Clear
3:55 AM 40.1 °F 33.2 °F 29.7 °F 66% 29.99 in 10.0 mi NNW 11.5 mph - N/A   Clear
4:15 AM 40.1 °F 32.7 °F 29.1 °F 65% 29.98 in 10.0 mi NNW 12.7 mph - N/A   Clear
4:35 AM 39.4 °F 33.2 °F 29.3 °F 67% 29.98 in 10.0 mi NNW 9.2 mph - N/A   Clear
4:55 AM 38.7 °F 32.9 °F 28.8 °F 68% 29.98 in 10.0 mi North 8.1 mph - N/A   Clear
5:15 AM 37.8 °F 33.3 °F 29.1 °F 71% 29.98 in 10.0 mi NNW 5.8 mph - N/A   Clear
5:35 AM 37.6 °F 32.3 °F 29.1 °F 72% 29.98 in 10.0 mi NNW 6.9 mph - N/A   Clear
5:55 AM 37.8 °F 33.3 °F 29.1 °F 71% 29.99 in 10.0 mi NNW 5.8 mph - N/A   Clear
6:15 AM 36.7 °F 32.0 °F 28.8 °F 73% 29.99 in 10.0 mi NNW 5.8 mph - N/A   Clear
6:35 AM 36.3 °F 30.8 °F 29.1 °F 75% 30.00 in 10.0 mi NNW 6.9 mph - N/A   Clear
6:55 AM 37.4 °F 32.1 °F 28.4 °F 70% 30.00 in - NW 6.9 mph - N/A   Clear
7:15 AM 35.6 °F 29.9 °F 29.1 °F 77% 30.00 in 10.0 mi NNW 6.9 mph - N/A   Clear
7:35 AM 35.6 °F 29.9 °F 28.9 °F 77% 30.00 in 10.0 mi NNW 6.9 mph - N/A   Clear
7:55 AM 36.0 °F 31.1 °F 28.8 °F 75% 30.00 in 10.0 mi NW 5.8 mph - N/A   Clear
8:15 AM 36.3 °F 32.5 °F 29.3 °F 76% 30.00 in 10.0 mi NW 4.6 mph - N/A   Clear
8:35 AM 37.8 °F 33.3 °F 29.3 °F 72% 30.00 in 10.0 mi NNW 5.8 mph - N/A   Clear
8:55 AM 39.2 °F 34.2 °F 28.4 °F 65% 30.01 in - NW 6.9 mph - N/A   Clear
9:15 AM 40.1 °F 35.3 °F 28.8 °F 64% 30.01 in 10.0 mi North 6.9 mph - N/A   Clear
9:35 AM 40.8 °F 36.2 °F 27.5 °F 59% 30.01 in 10.0 mi NNW 6.9 mph - N/A   Clear
9:55 AM 41.0 °F 35.8 °F 26.6 °F 57% 30.01 in - NNW 8.1 mph - N/A   Clear
10:15 AM 42.4 °F 39.6 °F 25.9 °F 52% 30.01 in 10.0 mi NNE 4.6 mph - N/A   Clear
10:35 AM 43.0 °F 38.2 °F 26.4 °F 52% 30.00 in 10.0 mi North 8.1 mph - N/A   Clear
10:55 AM 42.8 °F 38.6 °F 26.6 °F 53% 30.00 in - NNW 6.9 mph - N/A   Clear
11:15 AM 44.8 °F - 27.3 °F 50% 29.99 in 10.0 mi Calm Calm - N/A   Clear
11:35 AM 44.8 °F - 24.4 °F 45% 29.99 in 10.0 mi Calm Calm - N/A   Clear
11:55 AM 45.7 °F 44.4 °F 22.6 °F 40% 29.99 in 10.0 mi North 3.5 mph - N/A   Clear
12:15 PM 47.8 °F - 24.8 °F 41% 29.99 in 10.0 mi WNW 3.5 mph - N/A   Clear
12:35 PM 49.5 °F - 23.9 °F 37% 29.98 in 10.0 mi West 4.6 mph - N/A   Clear
12:55 PM 50.2 °F - 21.0 °F 32% 29.97 in 10.0 mi NW 8.1 mph - N/A   Clear
1:15 PM 52.0 °F - 23.0 °F 32% 29.95 in 10.0 mi WSW 3.5 mph - N/A   Clear
1:22 PM 53.6 °F - 21.2 °F 28% 29.95 in - North - - N/A   Clear
1:35 PM 52.9 °F - 22.6 °F 31% 29.94 in 10.0 mi WSW 6.9 mph - N/A   Clear
1:55 PM 53.2 °F - 20.3 °F 28% 29.93 in 10.0 mi Calm Calm - N/A   Clear
2:15 PM 54.7 °F - 21.7 °F 28% 29.92 in 10.0 mi West 8.1 mph - N/A   Clear
2:35 PM 56.1 °F - 22.3 °F 27% 29.91 in 10.0 mi WSW 9.2 mph - N/A   Clear
2:55 PM 55.9 °F - 22.1 °F 27% 29.88 in 10.0 mi NW 4.6 mph - N/A   Clear
3:15 PM 56.3 °F - 21.2 °F 26% 29.87 in 10.0 mi Calm Calm - N/A   Clear
3:35 PM 58.1 °F - 21.2 °F 24% 29.86 in 10.0 mi WSW 8.1 mph - N/A   Clear
3:55 PM 57.2 °F - 19.4 °F 23% 29.85 in - Calm Calm - N/A   Clear
4:15 PM 58.6 °F - 22.8 °F 25% 29.85 in 10.0 mi SE 3.5 mph - N/A   Clear
4:35 PM 58.8 °F - 21.6 °F 24% 29.83 in 10.0 mi WSW 4.6 mph - N/A   Clear
4:55 PM 59.0 °F - 19.4 °F 22% 29.82 in - SW 6.9 mph - N/A   Clear
5:15 PM 59.7 °F - 19.8 °F 21% 29.81 in 10.0 mi SSW 3.5 mph - N/A   Clear
5:35 PM 59.9 °F - 22.5 °F 24% 29.80 in 10.0 mi SSW 8.1 mph - N/A   Clear
5:55 PM 59.0 °F - 23.0 °F 25% 29.80 in - South 9.2 mph - N/A   Scattered Clouds
6:15 PM 58.6 °F - 23.9 °F 26% 29.78 in 10.0 mi South 8.1 mph - N/A   Clear
6:35 PM 57.7 °F - 25.9 °F 29% 29.78 in 10.0 mi SSE 5.8 mph - N/A   Clear
6:55 PM 55.4 °F - 26.6 °F 33% 29.78 in - SSE 5.8 mph - N/A   Mostly Cloudy
7:15 PM 54.5 °F - 27.9 °F 36% 29.77 in 10.0 mi SSE 5.8 mph - N/A   Clear
7:35 PM 53.8 °F - 29.7 °F 40% 29.78 in 10.0 mi SSE 5.8 mph - N/A   Clear
7:55 PM 51.8 °F - 30.2 °F 44% 29.78 in - SE 5.8 mph - N/A   Clear
8:15 PM 51.1 °F - 32.2 °F 48% 29.77 in 10.0 mi SSE 5.8 mph - N/A   Clear
8:35 PM 50.0 °F - 32.9 °F 52% 29.77 in 10.0 mi SE 5.8 mph - N/A   Clear
8:55 PM 49.1 °F - 32.4 °F 53% 29.77 in 10.0 mi SSE 5.8 mph - N/A   Clear
9:15 PM 48.7 °F - 32.0 °F 52% 29.76 in 10.0 mi SE 8.1 mph - N/A   Clear
9:35 PM 49.1 °F - 32.2 °F 52% 29.77 in 10.0 mi SE 9.2 mph - N/A   Clear
9:55 PM 48.7 °F - 32.0 °F 52% 29.77 in 10.0 mi SE 8.1 mph - N/A   Clear
10:35 PM 47.3 °F - 32.2 °F 56% 29.77 in 10.0 mi SE 8.1 mph - N/A   Clear
10:55 PM 46.6 °F - 32.2 °F 57% 29.76 in 10.0 mi SE 8.1 mph - N/A   Clear
11:15 PM 46.4 °F 41.9 °F 32.0 °F 57% 29.76 in 10.0 mi SE 9.2 mph - N/A   Clear
11:35 PM 46.0 °F 41.9 °F 32.0 °F 58% 29.76 in 10.0 mi SE 8.1 mph - N/A   Clear
11:55 PM 46.4 °F 42.4 °F 32.0 °F 57% 29.75 in 10.0 mi SE 8.1 mph - N/A   Clear